Regional Weather Roundup
Issued by NWS Glasgow, MT

Home | Current Version | Previous Version | Text Only | Print | Product List | Glossary On
Versions: 1 2 3 4 5 6 7 8 9 10 11 12 13 14 15 16 17 18 19 20 21 22 23 24 25 26 27 28 29 30 31 32 33 34 35 36 37 38 39 40 41 42 43 44 45 46 47 48 49 50
000
ASUS45 KGGW 051815
RWRGGW
HOURLY WEATHER ROUNDUP FOR NORTHEAST MONTANA
NATIONAL WEATHER SERVICE GLASGOW MONTANA
1100 AM MST THU MAR 05 2015

NOTE: "FAIR" INDICATES FEW OR NO CLOUDS BELOW 12,000 FEET WITH NO
SIGNIFICANT WEATHER AND/OR OBSTRUCTIONS TO VISISBILITY.

NORTHEAST MONTANA


CITY           SKY/WX    TMP DP  RH WIND       PRES   REMARKS
GLASGOW        SUNNY     32  11  41 W5        30.08F
6HR MIN TEMP:   7; 6HR MAX TEMP:  32;

PLENTYWOOD       N/A     26   8  46 W2          N/A
WOLF POINT     SUNNY     35  12  38 SW14      30.08S
JORDAN           N/A     41  14  33 W14       30.09F
WINNETT          N/A     45   8  22 W12G26      N/A
SIDNEY         SUNNY     32   9  37 W12       30.10S
GLENDIVE       SUNNY     37  14  38 NW21G26   30.07S
MALTA            N/A     39  17  41 W12G20      N/A
SCOBEY           N/A     34   7  32 W14G20    30.01S

FORT PECK REPORTS


CITY           SKY/WX    TMP DP  RH WIND       PRES   REMARKS
FORT PECK        N/A     33  19  56 W3          N/A
THE PINES        N/A     42  14  32 W9          N/A

SOUTHEAST MONTANA


CITY           SKY/WX    TMP DP  RH WIND       PRES   REMARKS
BILLINGS       MOSUNNY   36  11  35 SW18      30.16S
MILES CITY     SUNNY     40  14  34 MISG      30.11R
BAKER          SUNNY     37  13  37 W22G30    30.05F
LIVINGSTON     SUNNY     40  12  32 SW26G36   30.18F

CENTRAL MONTANA


CITY           SKY/WX    TMP DP  RH WIND       PRES   REMARKS
HAVRE          SUNNY     42  16  34 SW21      30.09F
LEWISTOWN      SUNNY     37  20  50 W15       30.12S
GREAT FALLS    MOSUNNY   46  10  23 W20G25    30.11S
CUT BANK       PTSUNNY   42  14  32 W30       30.07S
HELENA         PTSUNNY   43   4  19 NW14      30.21S
BUTTE          PTSUNNY   36   4  26 N5        30.24S
BOZEMAN        MOSUNNY   36  16  44 CALM      30.25F

WESTERN MONTANA


CITY           SKY/WX    TMP DP  RH WIND       PRES   REMARKS
MISSOULA       SUNNY     32  14  47 CALM      30.34S
KALISPELL      NOT AVBL

NORTH DAKOTA


CITY           SKY/WX    TMP DP  RH WIND       PRES   REMARKS
WILLISTON        N/A     26   8  46 W12       30.06S
DICKINSON      SUNNY     34   9  35 W14       30.02S
MINOT          SUNNY     17   4  56 S9        30.05F
BISMARCK       SUNNY     26   4  38 S14       30.13F

SOUTHERN SASKATCHEWAN


CITY           SKY/WX    TMP DP  RH WIND       PRES   REMARKS
REGINA         MOSUNNY    7  -2  66 S8        29.98F
MOOSE JAW      MOSUNNY   25  12  58 W16       29.97F
ESTEVAN        MOSUNNY   16   5  62 SW10      30.02F
SWIFT CURRENT  SUNNY     32  18  55 W16       29.98R



USA.gov is the U.S. government's official web portal to all federal, state and local government web resources and services.